Pensacola, FL

1:23 AM CST on December 03, 2016 (GMT -0600)
Pensacola Naval Air Station

Weather History for KNPA - April, 2013

Change the Weather History Date:

Tuesday, April 30, 2013

  Actual Average Record
Temperature  
Mean Temperature 72 °F -  
Max Temperature 77 °F 77 °F 84 °F (2002)
Min Temperature 66 °F 60 °F 52 °F (1997)
Cooling Degree Days 6    
Growing Degree Days 22 (Base 50)    
Moisture  
Dew Point 67 °F    
Average Humidity 85    
Maximum Humidity 94    
Minimum Humidity 76    
Precipitation  
Precipitation 0.00 in - - ()
Sea Level Pressure  
Sea Level Pressure 29.94 in    
Wind  
Wind Speed 8 mph (ESE)    
Max Wind Speed 16 mph    
Max Gust Speed -    
Visibility 10 miles    
Events Rain    
Averages and records for this station are not official NWS values.
T = Trace of Precipitation, MM = Missing Value Source: NWS Daily Summary

Daily Weather History Graph

Daily Weather History Graph

Search for Another Location

Airport or City:

Trip Planner

Search our weather history database for the weather conditions in past years. The results will help you decide how hot, cold, wet, or windy it might be!

Date:

Astronomy

Apr. 30, 2013 Rise Set
Actual Time 6:06 AM CDT 7:26 PM CDT
Civil Twilight 5:41 AM CDT 7:52 PM CDT
Nautical Twilight 5:10 AM CDT 8:22 PM CDT
Astronomical Twilight 4:39 AM CDT 8:54 PM CDT
Moon No Moon Rise 10:39 AM CDT (4/30)
Length of Visible Light 14h 11m
Length of Day
13h 20m
Waning Gibbous, 70% of the Moon is Illuminated
Apr 30
Waning Gibbous
May 2
Last Quarter
May 9
New
May 17
First Quarter
May 24
Full

Hourly Weather History & Observations

Time (CDT) Temp. Dew Point Humidity Pressure Visibility Wind Dir Wind Speed Gust Speed Precip Events Conditions
12:10 AM 69.8 °F 66.2 °F 88% 29.94 in 10.0 mi ESE 6.9 mph - N/A   Partly Cloudy
12:56 AM 69.1 °F 66.0 °F 90% 29.94 in 10.0 mi ESE 5.8 mph - N/A   Clear
1:56 AM 66.9 °F 64.9 °F 93% 29.92 in 10.0 mi SE 4.6 mph - N/A   Partly Cloudy
2:23 AM 69.8 °F 66.2 °F 88% 29.92 in 10.0 mi SE 5.8 mph - N/A   Mostly Cloudy
2:32 AM 69.8 °F 66.2 °F 88% 29.92 in 10.0 mi ESE 3.5 mph - N/A   Mostly Cloudy
2:39 AM 69.8 °F 66.2 °F 88% 29.92 in 10.0 mi ESE 3.5 mph - N/A   Overcast
2:56 AM 70.0 °F 66.0 °F 87% 29.92 in 10.0 mi SE 4.6 mph - N/A   Overcast
3:03 AM 69.8 °F 64.4 °F 83% 29.92 in 10.0 mi SE 5.8 mph - N/A   Overcast
3:32 AM 69.8 °F 64.4 °F 83% 29.92 in 10.0 mi SE 9.2 mph - N/A   Mostly Cloudy
3:41 AM 69.8 °F 64.4 °F 83% 29.92 in 10.0 mi ESE 5.8 mph - N/A   Partly Cloudy
3:56 AM 68.0 °F 64.9 °F 90% 29.93 in 10.0 mi East 5.8 mph - N/A   Clear
4:56 AM 69.1 °F 66.0 °F 90% 29.91 in 10.0 mi ESE 6.9 mph - N/A   Clear
5:56 AM 69.1 °F 66.9 °F 93% 29.93 in 10.0 mi ESE 6.9 mph - N/A   Scattered Clouds
6:51 AM 69.8 °F 68.0 °F 94% 29.94 in 10.0 mi ESE 8.1 mph - N/A   Mostly Cloudy
6:56 AM 71.1 °F 69.1 °F 93% 29.95 in 10.0 mi ESE 10.4 mph - N/A   Mostly Cloudy
7:56 AM 72.0 °F 69.1 °F 91% 29.96 in 10.0 mi ESE 11.5 mph - N/A   Mostly Cloudy
8:27 AM 73.4 °F 69.8 °F 88% 29.95 in 10.0 mi ESE 11.5 mph - N/A   Mostly Cloudy
8:56 AM 73.0 °F 68.0 °F 84% 29.96 in 10.0 mi ESE 11.5 mph - N/A   Mostly Cloudy
9:56 AM 75.0 °F 69.1 °F 82% 29.96 in 10.0 mi ESE 15.0 mph - N/A   Mostly Cloudy
10:25 AM 75.2 °F 69.8 °F 83% 29.97 in 10.0 mi ESE 16.1 mph - N/A   Mostly Cloudy
10:48 AM 75.2 °F 69.8 °F 83% 29.98 in 10.0 mi ESE 16.1 mph - N/A   Mostly Cloudy
10:56 AM 75.0 °F 68.0 °F 79% 29.98 in 10.0 mi ESE 16.1 mph - N/A   Mostly Cloudy
11:16 AM 75.2 °F 68.0 °F 78% 29.97 in 10.0 mi ESE 15.0 mph - N/A   Mostly Cloudy
11:56 AM 75.9 °F 68.0 °F 76% 29.98 in 10.0 mi SE 13.8 mph - N/A   Mostly Cloudy
12:56 PM 73.9 °F 68.0 °F 82% 29.97 in 10.0 mi East 10.4 mph - N/A   Mostly Cloudy
1:56 PM 77.0 °F 69.1 °F 76% 29.96 in 10.0 mi ESE 13.8 mph - N/A   Mostly Cloudy
2:56 PM 75.0 °F 68.0 °F 79% 29.94 in 10.0 mi ESE 13.8 mph - N/A   Overcast
3:56 PM 75.0 °F 66.9 °F 76% 29.92 in 10.0 mi ESE 10.4 mph - N/A   Overcast
4:56 PM 73.9 °F 68.0 °F 82% 29.92 in 10.0 mi ESE 11.5 mph - N/A   Overcast
5:56 PM 73.0 °F 69.1 °F 87% 29.93 in 10.0 mi SE 11.5 mph - N/A   Overcast
6:56 PM 72.0 °F 69.1 °F 91% 29.93 in 10.0 mi SE 11.5 mph - N/A   Overcast
7:56 PM 73.0 °F 66.9 °F 81% 29.94 in 10.0 mi ESE 9.2 mph - N/A   Overcast
8:56 PM 73.0 °F 66.0 °F 79% 29.94 in 10.0 mi East 12.7 mph - N/A   Overcast
9:56 PM 73.0 °F 66.9 °F 81% 29.96 in 10.0 mi ESE 9.2 mph - 0.00 in Rain Light Rain
10:06 PM 73.4 °F 66.2 °F 78% 29.95 in 10.0 mi ESE 9.2 mph - 0.00 in   Overcast
10:56 PM 72.0 °F 68.0 °F 87% 29.95 in 10.0 mi ESE 10.4 mph - 0.00 in   Overcast
11:56 PM 72.0 °F 69.1 °F 91% 29.94 in 10.0 mi ESE 13.8 mph - N/A   Mostly Cloudy